Home > Weather > Howell > Past weeks

Flag for USA Past Weather in Howell, Michigan, USA — Yesterday and Last 2 Weeks

Now
70 °F

Clear.


Feels Like: 70 °F
Forecast: 66 / 88 °F
Wind: 6 mph from South

Location: Livingston County Airport

Current Time: Jun 26, 2016 at 12:50:33 AM

Latest Report: Jun 26, 2016 at 12:14 AM


Visibility: 10 mi

Pressure: 30.11 "Hg

Humidity: 50%

Dew Point: 50 °F

Location of HowellLocation

Past Weather in Howell — Graph

°F

Howell Temperature Yesterday

Maximum temperature yesterday: 87 °F (at 4:54 PM)
Minimum temperature yesterday: 55 °F (at 6:15 AM)
Average temperature yesterday: 73 °F

High & Low Weather Summary for the Past Weeks

 TemperatureHumidityPressure
High92 °F (Jun 11, 4:14 PM)98% (Jun 16, 6:54 AM)30.29 "Hg (Jun 16, 6:54 AM)
Low47 °F (Jun 13, 4:54 AM)18% (Jun 12, 4:35 PM)29.66 "Hg (Jun 16, 6:34 AM)
Average71 °F55%30.00 "Hg
* Reported Jun 10 11:15 PM — Jun 25 11:35 PM, Howell, Weather by CustomWeather, © 2016

Note: Actual official high and low records may vary slightly from our data, if they occured in-between our weather recording intervals... More about our weather records

Advertising

Howell Weather History for the Previous 24 Hours

Scroll right to see more
 ConditionsComfort  
Time TempWeatherWind HumidityBarometerVisibility
11:35 PM
Sat, Jun 25
71 °FClear.3 mph45%30.12 "Hg10 mi
11:14 PM71 °FClear.5 mph45%30.11 "Hg10 mi
10:54 PM73 °FClear.6 mph40%30.10 "Hg10 mi
10:35 PM73 °FClear.7 mph40%30.10 "Hg10 mi
10:14 PM74 °FSunny.6 mph41%30.10 "Hg10 mi
9:54 PM74 °FSunny.6 mph41%30.09 "Hg10 mi
9:35 PM76 °FSunny.5 mph40%30.08 "Hg10 mi
9:14 PM77 °FSunny.6 mph39%30.06 "Hg10 mi
8:54 PM80 °FSunny.6 mph34%30.07 "Hg10 mi
8:35 PM81 °FSunny.6 mph31%30.07 "Hg10 mi
8:14 PM83 °FSunny.6 mph30%30.08 "Hg10 mi
7:54 PM84 °FSunny.6 mph28%30.09 "Hg10 mi
7:35 PM84 °FSunny.8 mph27%30.09 "Hg10 mi
7:14 PM85 °FSunny.6 mph26%30.09 "Hg10 mi
6:54 PM85 °FSunny.8 mph26%30.09 "Hg10 mi
6:35 PM86 °FSunny.9 mph25%30.09 "Hg10 mi
6:14 PM86 °FSunny.9 mph25%30.09 "Hg10 mi
5:54 PM86 °FSunny.8 mph26%30.10 "Hg10 mi
5:35 PM86 °FSunny.7 mph25%30.10 "Hg10 mi
5:14 PM87 °FSunny.3 mph25%30.11 "Hg10 mi
4:54 PM87 °FSunny.5 mph25%30.12 "Hg10 mi
4:34 PM86 °FSunny.6 mph25%30.12 "Hg10 mi
4:14 PM86 °FSunny.5 mph25%30.13 "Hg10 mi
3:54 PM86 °FSunny.8 mph26%30.13 "Hg10 mi
3:34 PM86 °FSunny.8 mph25%30.14 "Hg10 mi
2:54 PM85 °FSunny.5 mph25%30.14 "Hg10 mi
2:34 PM84 °FSunny.5 mph26%30.14 "Hg10 mi
2:14 PM83 °FSunny.6 mph27%30.14 "Hg10 mi
1:54 PM84 °FSunny.9 mph27%30.15 "Hg10 mi
1:34 PM84 °FSunny.6 mph27%30.15 "Hg10 mi
1:14 PM83 °FSunny.6 mph27%30.16 "Hg10 mi
12:54 PM82 °FSunny.3 mph28%30.16 "Hg7 mi
12:34 PM83 °FSunny.No wind28%30.17 "Hg10 mi
12:14 PM82 °FSunny.6 mph30%30.17 "Hg10 mi
11:55 AM82 °FSunny.7 mph31%30.17 "Hg10 mi
11:34 AM81 °FSunny.5 mph32%30.17 "Hg10 mi
11:14 AM80 °FSunny.7 mph32%30.17 "Hg10 mi
10:54 AM80 °FSunny.6 mph32%30.17 "Hg10 mi
10:34 AM80 °FSunny.3 mph32%30.18 "Hg10 mi
10:14 AM79 °FSunny.7 mph33%30.18 "Hg10 mi
9:54 AM78 °FSunny.6 mph35%30.18 "Hg10 mi
9:34 AM76 °FSunny.6 mph39%30.18 "Hg10 mi
9:15 AM74 °FSunny.5 mph42%30.18 "Hg10 mi
8:54 AM72 °FSunny.3 mph48%30.18 "Hg10 mi
8:34 AM70 °FSunny.No wind52%30.17 "Hg10 mi
8:15 AM68 °FSunny.No wind55%30.17 "Hg10 mi
7:54 AM65 °FSunny.3 mph66%30.17 "Hg10 mi
7:34 AM62 °FSunny.No wind81%30.16 "Hg10 mi
7:15 AM59 °FSunny.No wind84%30.16 "Hg10 mi
6:54 AM57 °FClear.No wind86%30.15 "Hg10 mi
6:34 AM56 °FClear.No wind87%30.15 "Hg10 mi
6:15 AM55 °FClear.No wind88%30.14 "Hg10 mi
5:54 AM56 °FClear.No wind87%30.14 "Hg10 mi
5:34 AM57 °FClear.No wind84%30.13 "Hg10 mi
5:15 AM56 °FClear.No wind88%30.13 "Hg10 mi
4:54 AM56 °FClear.No wind86%30.13 "Hg10 mi
4:34 AM56 °FClear.No wind86%30.13 "Hg10 mi
4:15 AM57 °FClear.No wind86%30.13 "Hg10 mi
3:54 AM58 °FClear.No wind84%30.13 "Hg10 mi
3:34 AM57 °FClear.No wind85%30.14 "Hg10 mi
3:15 AM58 °FClear.No wind80%30.14 "Hg10 mi
2:54 AM61 °FClear.No wind78%30.14 "Hg10 mi
2:34 AM60 °FClear.No wind80%30.14 "Hg10 mi
2:14 AM60 °FClear.3 mph80%30.14 "Hg10 mi
1:54 AM61 °FClear.No wind79%30.14 "Hg10 mi
1:34 AM60 °FClear.No wind80%30.15 "Hg10 mi
1:14 AM59 °FClear.No wind82%30.14 "Hg10 mi
12:54 AM61 °FClear.No wind77%30.14 "Hg10 mi
12:35 AM61 °FClear.No wind78%30.14 "Hg10 mi
12:14 AM61 °FClear.No wind78%30.14 "Hg10 mi
Weather by CustomWeather, © 2016

See weather overviewHow to use our weather pages